EST,Max TemperatureF,Mean TemperatureF,Min TemperatureF,Max Dew PointF,MeanDew PointF,Min DewpointF,Max Humidity, Mean Humidity, Min Humidity, Max Sea Level PressureIn, Mean Sea Level PressureIn, Min Sea Level PressureIn, Max VisibilityMiles, Mean VisibilityMiles, Min VisibilityMiles, Max Wind SpeedMPH, Mean Wind SpeedMPH, Max Gust SpeedMPH,PrecipitationIn, CloudCover, Events, WindDirDegrees
2013-1-1,21,18,15,15,13,11,92,80,66,30.08,30.01,29.97,10,9,4,13,5,22,0.00,8,Snow,261
2013-1-2,23,20,17,20,16,12,93,84,76,30.08,30.03,29.95,10,8,2,9,6,,0.00,8,Snow,236
2013-1-3,28,24,21,25,22,19,96,87,81,30.03,29.97,29.93,10,7,3,15,6,25,0.00,8,Snow,235
2013-1-4,28,24,21,24,21,18,98,85,76,30.05,29.91,29.84,10,10,7,18,12,28,0.00,4,,249
2013-1-5,33,22,10,32,24,9,100,91,77,30.16,30.03,29.83,10,6,0,14,4,17,0.00,6,Fog-Snow,188
2013-1-6,33,30,26,33,29,22,100,92,83,30.20,29.92,29.76,10,7,2,10,5,,0.00,8,Snow,287
2013-1-7,36,28,20,29,23,18,92,75,60,30.23,30.07,29.93,10,10,10,18,7,25,0.00,2,,210
2013-1-8,35,28,20,31,28,20,100,89,78,30.12,30.06,29.97,10,6,0,12,6,18,0.00,1,Fog,196
2013-1-9,38,34,28,32,27,25,93,75,64,30.36,30.01,29.82,10,9,3,21,11,34,0.00,5,Snow,238
2013-1-10,39,26,13,32,22,12,100,81,52,30.50,30.38,30.12,10,8,0,13,2,17,0.00,0,Fog-Rain,133
2013-1-11,43,38,33,43,38,28,100,99,82,30.10,29.79,29.67,10,3,0,16,9,23,0.00,8,Fog-Rain-Snow,166
2013-1-12,53,44,34,47,38,24,100,78,38,29.92,29.76,29.67,10,9,4,18,9,32,0.00,4,Rain,222
2013-1-13,33,28,23,33,30,21,100,97,89,29.95,29.86,29.80,10,7,1,13,5,22,0.00,8,Rain-Snow,269
2013-1-14,23,19,15,21,15,12,90,84,71,30.33,30.22,29.96,10,8,3,14,9,22,0.00,6,Snow,244
2013-1-15,28,18,8,17,14,6,92,78,62,30.33,30.24,30.05,10,9,4,13,5,22,0.00,2,Snow,232
2013-1-16,29,22,16,27,21,15,96,85,67,30.04,29.79,29.62,10,8,1,17,7,28,0.00,5,Snow,238
2013-1-17,23,12,1,18,9,-2,92,77,60,30.25,30.13,29.92,10,6,1,16,8,31,0.00,8,Snow,304
2013-1-18,36,18,-1,30,12,-5,89,83,74,30.30,30.07,29.73,10,9,1,13,4,20,0.00,6,Snow,191
2013-1-19,38,36,33,36,33,28,100,89,79,29.79,29.63,29.39,10,8,1,20,8,29,0.00,8,Rain-Snow,228
2013-1-20,33,20,8,29,10,5,91,82,71,30.08,29.91,29.38,10,4,0,28,15,39,0.00,8,Snow,276
2013-1-21,10,4,-1,6,0,-9,90,77,58,30.02,29.92,29.86,10,6,1,17,7,26,0.00,7,Snow,261
2013-1-22,5,0,-4,-3,-7,-10,81,73,55,30.15,30.08,29.98,10,5,1,15,9,23,0.00,7,Snow,252
2013-1-23,13,6,-1,8,2,-4,92,81,70,30.14,30.06,29.97,10,5,1,10,5,16,0.00,7,Snow,239
2013-1-24,11,1,-8,-1,-5,-13,88,76,50,30.55,30.43,30.14,10,10,2,12,4,,0.00,0,Snow,327
2013-1-25,18,11,4,15,8,-1,95,82,68,30.40,30.08,29.92,10,5,1,12,4,18,0.00,8,Snow,153
2013-1-26,23,11,-1,17,11,-5,95,87,66,30.36,30.20,29.98,10,7,0,10,2,,0.00,5,Fog-Snow,306
2013-1-27,28,17,6,25,18,4,98,86,66,30.36,30.27,30.03,10,7,0,12,4,18,0.00,7,Snow,153
2013-1-28,34,30,26,34,31,25,100,98,92,30.03,29.88,29.79,10,5,1,13,6,16,0.00,8,Snow,153
2013-1-29,48,40,31,48,39,32,100,100,96,29.96,29.66,29.41,10,5,0,13,7,17,0.00,8,Fog-Rain-Snow,154
2013-1-30,41,32,23,42,33,21,100,99,88,29.41,29.23,29.03,10,4,0,18,5,25,0.00,8,Rain-Snow,330
2013-1-31,22,18,13,19,12,9,92,84,66,29.78,29.50,29.16,10,3,0,21,13,32,0.00,8,Snow,293